Charlotte, NC

8:14 AM EST on December 13, 2019 (GMT -0500)
Charlotte-Douglas International

Weather History for KCLT - November, 2019

Change the Weather History Date:

Saturday, November 16, 2019

  Actual Average Record
Temperature  
Mean Temperature 50 °F 51 °F  
Max Temperature 55 °F 62 °F 82 °F (1958)
Min Temperature 44 °F 39 °F 22 °F (1969)
Degree Days  
Heating Degree Days 15 14  
Month to date heating degree days 282 195  
Since 1 July heating degree days 339 401  
Cooling Degree Days 0 0  
Month to date cooling degree days 0 0  
Year to date cooling degree days 2254 1513  
Moisture  
Dew Point 27 °F    
Average Humidity 44    
Maximum Humidity 53    
Minimum Humidity 34    
Precipitation  
Precipitation T in 0.10 in 2.26 in (1920)
Month to date precipitation 1.29 1.61  
Year to date precipitation 46.62 36.85  
Snow  
Snow 0.00 in 0.00 in T in (1972)
Month to date snowfall 0.0 0.0  
Since 1 July snowfall T 0.0  
Since 1 September snowfall 0.0 0.0  
Snow Depth 0.00 in    
Sea Level Pressure  
Sea Level Pressure 30.09 in    
Wind  
Wind Speed 15 mph (NNE)    
Max Wind Speed 23 mph    
Max Gust Speed 32 mph    
Visibility 10 miles    
Events Rain    
T = Trace of Precipitation, MM = Missing Value Source: NWS Daily Summary

Daily Weather History Graph

Daily Weather History Graph

Search for Another Location

Airport or City:

Astronomy

Nov. 16, 2019 Rise Set
Actual Time 6:59 AM EST 5:17 PM EST
Civil Twilight 6:32 AM EST 5:44 PM EST
Nautical Twilight 6:01 AM EST 6:14 PM EST
Astronomical Twilight 5:31 AM EST 6:45 PM EST
Moon 8:52 PM EST (11/16) 10:47 AM EST (11/16)
Length of Visible Light 11h 11m
Length of Day
10h 17m
Waning Gibbous, 82% of the Moon is Illuminated
Nov 16
Waning Gibbous
Nov 19
Last Quarter
Nov 26
New
Dec 4
First Quarter
Dec 12
Full

Hourly Weather History & Observations

Time (EST) Temp. Windchill Dew Point Humidity Pressure Visibility Wind Dir Wind Speed Gust Speed Precip Events Conditions
12:52 AM 48.0 °F - 26.1 °F 42% 30.07 in 10.0 mi North 10.4 mph - 0.00 in   Overcast
1:52 AM 48.9 °F - 23.0 °F 36% 30.06 in 10.0 mi NNE 12.7 mph - 0.00 in   Overcast
3:52 AM 48.0 °F - 23.0 °F 37% 30.04 in 10.0 mi NNE 17.3 mph 23.0 mph N/A   Overcast
4:52 AM 46.9 °F - 24.1 °F 41% 30.04 in 10.0 mi NNE 15.0 mph - N/A   Mostly Cloudy
6:00 AM 48.0 °F - 25.0 °F 41% 30.07 in 10.0 mi NNE 17.3 mph 23.0 mph N/A   Mostly Cloudy
6:52 AM 46.9 °F - 26.1 °F 44% 30.08 in 10.0 mi North 17.3 mph 26.5 mph 0.00 in Rain Light Rain
7:52 AM 46.9 °F - 25.0 °F 42% 30.10 in 10.0 mi NNE 19.6 mph 25.3 mph 0.00 in   Mostly Cloudy
8:52 AM 46.9 °F - 26.1 °F 44% 30.11 in 10.0 mi NNE 15.0 mph 25.3 mph N/A   Mostly Cloudy
9:52 AM 46.9 °F - 27.0 °F 46% 30.13 in 10.0 mi North 17.3 mph 25.3 mph N/A   Overcast
11:52 AM 48.9 °F - 28.0 °F 44% 30.13 in 10.0 mi NNE 15.0 mph 21.9 mph N/A   Overcast
12:52 PM 51.1 °F - 30.0 °F 44% 30.09 in 10.0 mi NE 15.0 mph 26.5 mph N/A   Mostly Cloudy
1:52 PM 54.0 °F - 28.9 °F 38% 30.06 in 10.0 mi NE 11.5 mph 21.9 mph N/A   Mostly Cloudy
2:52 PM 54.0 °F - 28.0 °F 37% 30.08 in 10.0 mi NNE 16.1 mph 23.0 mph N/A   Mostly Cloudy
3:52 PM 53.1 °F - 28.0 °F 38% 30.08 in 10.0 mi NE 13.8 mph - N/A   Overcast
4:52 PM 51.1 °F - 27.0 °F 39% 30.08 in 10.0 mi NNE 15.0 mph 26.5 mph N/A   Mostly Cloudy
5:52 PM 50.0 °F - 27.0 °F 41% 30.09 in 10.0 mi NNE 15.0 mph 23.0 mph N/A   Mostly Cloudy
6:52 PM 48.9 °F - 26.1 °F 41% 30.12 in 10.0 mi NNE 15.0 mph 24.2 mph N/A   Overcast
7:52 PM 46.9 °F - 27.0 °F 46% 30.13 in 10.0 mi NNE 13.8 mph 21.9 mph N/A   Mostly Cloudy
8:52 PM 46.0 °F 39.9 °F 27.0 °F 47% 30.13 in 10.0 mi NNE 13.8 mph 21.9 mph N/A   Mostly Cloudy
9:52 PM 46.0 °F 39.3 °F 28.0 °F 50% 30.14 in 10.0 mi NNE 16.1 mph 20.7 mph N/A   Overcast
10:52 PM 45.0 °F 40.1 °F 28.0 °F 52% 30.13 in 10.0 mi NNE 9.2 mph - N/A   Overcast
11:52 PM 44.1 °F 36.8 °F 27.0 °F 51% 30.14 in 10.0 mi NNE 16.1 mph 29.9 mph N/A   Overcast